Temp
2 2 2 2 2 3 3 3 3 3 3 3 4 4 5 6 7 7 8 8 8 7 7 7 7 8 8 8 8 8 8 8 8 8 8 8 8 8 8 8 8 8 8 8 7 7 7 7 7 7 7 7 7 7 7 7 7 7 7 7 7 7 7 7 7 7 7 7 7
2 2 2 2 2 2 2 3 3 3 3 3 3 4 5 5 6 7 7 8 8 7 7 7 7 7 7 7 7 7 7 7 7 8 8 8 8 8 8 8 8 7 7 7 7 7 7 7 7 7 7 7 7 7 7 7 7 7 7 7 7 7 7 7 7 7 7 7 7
1 1 1 2 2 2 2 2 2 2 2 3 3 4 4 5 5 6 7 7 8 8 8 8 7 7 7 7 7 6 6 6 7 7 7 7 7 7 7 7 7 7 7 7 7 7 7 7 7 7 7 7 7 7 7 7 7 7 7 7 7 7 7 7 7 7 7 7 7
1 1 1 1 2 2 2 2 2 2 2 2 3 3 4 4 5 5 6 7 7 8 8 8 8 8 7 7 6 6 6 6 6 7 7 7 7 7 7 7 7 7 7 7 7 7 7 7 6 6 6 6 7 7 7 7 7 6 6 6 6 6 6 6 6 6 6 6 7
1 1 1 1 1 1 1 1 1 1 1 2 2 3 3 4 4 5 6 6 7 7 8 8 8 8 7 7 6 6 6 5 5 6 6 6 6 6 6 6 6 6 6 6 6 6 6 6 6 6 6 6 6 7 7 7 7 6 6 6 6 6 6 6 6 6 6 6 6
1 1 1 1 1 1 1 1 1 1 1 1 2 2 2 3 3 4 5 6 6 6 7 7 7 7 7 6 6 5 5 5 5 5 5 6 6 6 6 6 6 6 6 6 6 6 6 6 6 6 6 6 6 6 6 6 6 6 6 6 6 5 5 6 6 6 6 6 6
1 1 1 1 1 1 1 1 1 1 1 0 1 1 2 2 3 3 4 5 6 6 6 6 6 6 6 6 5 5 5 5 5 5 5 5 6 6 6 6 6 6 6 6 6 5 5 5 6 6 6 6 6 6 6 6 6 6 6 6 5 5 5 5 5 5 6 6 6
1 1 1 1 1 1 1 1 1 0 0 0 0 1 2 2 2 3 4 4 5 5 6 6 6 6 6 6 5 5 5 5 5 5 5 5 5 6 6 6 6 6 6 5 5 5 5 5 5 6 6 6 6 5 5 5 5 5 5 5 5 5 5 5 5 5 5 5 5
1 1 1 1 1 1 0 0 0 0 -0 -0 -0 0 1 2 2 2 3 4 4 5 5 5 6 6 6 6 6 5 5 5 4 4 4 4 5 5 5 6 6 6 6 5 5 5 5 5 5 6 6 5 5 5 5 5 5 5 5 5 5 5 5 5 4 4 5 5 5
1 1 1 0 0 0 0 -0 -0 -0 -0 -1 -0 -0 0 1 2 2 3 3 4 4 5 5 5 5 6 6 5 5 5 4 4 4 4 4 4 4 5 5 5 6 5 5 5 5 5 5 5 5 5 5 5 5 4 4 4 4 4 4 4 4 4 4 4 4 4 4 4
0 0 -0 -0 -0 -0 -0 -1 -1 -1 -1 -1 -1 -0 0 1 1 2 2 3 3 4 4 4 4 5 5 5 4 4 4 3 3 3 3 3 3 3 4 5 5 5 5 5 5 5 5 5 5 5 5 5 4 4 4 4 3 3 3 4 4 4 4 4 4 4 4 4 4
-0 -0 -1 -1 -1 -1 -1 -1 -1 -1 -1 -1 -1 -0 0 1 1 2 2 2 3 3 3 3 4 4 4 4 4 4 3 3 3 2 2 3 3 3 3 4 4 4 4 4 4 4 4 4 4 4 4 4 4 3 3 3 3 3 3 3 3 3 3 3 3 4 4 4 4
-1 -1 -2 -2 -2 -2 -2 -2 -2 -2 -1 -1 -1 -1 -0 0 1 1 2 2 2 2 2 2 3 3 4 4 4 3 3 3 2 2 2 2 3 3 3 3 3 4 4 4 4 4 4 4 4 4 4 3 3 3 2 2 2 2 2 2 2 2 2 2 3 3 3 3 4
-2 -2 -3 -3 -3 -2 -2 -3 -2 -2 -2 -2 -1 -1 -0 -0 0 1 1 2 2 2 2 2 2 3 3 3 3 3 2 2 2 2 2 2 2 3 3 3 3 3 3 3 3 2 3 3 3 3 3 3 2 2 2 2 2 2 1 1 1 1 2 2 2 2 2 2 3
-2 -3 -3 -3 -3 -3 -3 -3 -3 -3 -2 -2 -1 -1 -1 -0 0 0 1 1 1 1 2 2 2 2 3 3 3 2 2 2 1 1 2 2 2 2 2 2 2 2 2 2 2 1 2 2 2 3 3 3 3 3 2 2 2 2 1 1 1 1 1 1 1 1 2 2 2
-3 -4 -4 -4 -4 -4 -4 -4 -3 -3 -2 -2 -2 -1 -1 -0 0 1 1 1 1 1 2 2 2 2 2 2 2 2 1 1 1 1 1 1 1 1 2 2 2 2 1 1 1 1 1 1 2 2 3 3 3 3 2 2 2 2 1 1 1 1 1 1 1 1 1 1 1
-4 -4 -4 -4 -4 -4 -4 -4 -3 -3 -2 -2 -2 -1 -1 -0 0 1 1 1 1 2 2 2 2 3 3 3 2 2 1 1 1 1 1 1 1 1 1 1 1 1 1 1 1 1 1 1 2 2 2 2 2 2 2 2 1 1 1 0 0 0 0 0 1 1 1 1 1
-4 -4 -4 -4 -4 -4 -4 -4 -3 -3 -3 -2 -2 -2 -1 -1 -0 -0 0 1 1 2 2 2 2 3 3 2 2 1 1 1 1 1 0 0 1 1 1 1 1 1 1 0 0 1 1 1 1 2 2 2 2 1 1 1 0 0 -0 -0 -0 -0 -0 0 0 0 1 1 1
-4 -4 -4 -4 -4 -4 -4 -4 -4 -3 -3 -3 -2 -2 -2 -1 -1 -1 -0 0 1 1 2 2 2 2 1 1 1 1 1 1 1 0 -0 -0 0 0 0 0 0 0 0 0 1 0 0 0 1 1 1 1 1 1 1 0 -0 -0 -0 -0 -0 -0 -0 -0 0 0 0 0 1
-5 -5 -5 -4 -4 -4 -4 -4 -4 -3 -3 -3 -3 -2 -2 -2 -1 -1 -1 -0 0 0 1 1 1 0 0 0 0 0 0 0 0 -0 -0 -0 -0 0 -0 -0 0 0 0 0 0 0 -0 -0 0 0 0 1 1 0 0 -0 -0 -0 0 0 -0 -0 -0 0 0 0 0 0 0
-5 -5 -5 -5 -4 -4 -4 -4 -4 -4 -3 -3 -3 -3 -2 -2 -2 -1 -1 -1 -1 -1 -1 -0 -1 -1 -1 -1 -1 -1 -1 -0 -1 -1 -1 -0 -0 -0 -0 -0 -0 0 0 -0 -0 -1 -1 -1 -0 -0 0 0 0 -0 -0 -0 -0 -0 -0 -0 -0 -0 -0 -0 -0 -0 -0 -0 -0
-5 -5 -5 -5 -5 -5 -4 -4 -4 -4 -4 -4 -3 -3 -3 -2 -2 -2 -2 -1 -1 -1 -1 -1 -1 -1 -1 -1 -1 -1 -1 -1 -1 -0 -0 -0 -0 -0 -0 -0 -0 -0 -1 -1 -1 -1 -1 -1 -1 -0 -0 -0 -0 -0 -0 -0 -0 -1 -1 -0 -0 -0 -0 -0 -1 -1 -1 -0 -0
-5 -5 -5 -5 -5 -5 -4 -4 -4 -4 -4 -4 -3 -3 -3 -3 -2 -2 -2 -2 -2 -2 -2 -2 -1 -1 -1 -1 -1 -1 -1 -1 -1 -1 -1 -1 -1 -1 -1 -1 -1 -1 -1 -2 -2 -1 -1 -1 -1 -1 -1 -1 -1 -1 -1 -1 -1 -1 -1 -1 -1 -1 -1 -1 -1 -1 -1 -1 -1
-5 -5 -5 -5 -5 -5 -5 -4 -4 -4 -4 -4 -4 -3 -3 -3 -3 -2 -2 -2 -2 -2 -2 -2 -2 -1 -1 -1 -1 -1 -1 -1 -1 -1 -1 -1 -1 -1 -1 -1 -2 -2 -2 -2 -2 -2 -1 -1 -1 -1 -1 -1 -1 -1 -1 -1 -1 -1 -2 -2 -2 -2 -2 -2 -2 -2 -2 -1 -1
-5 -5 -5 -5 -5 -5 -5 -5 -4 -4 -4 -4 -4 -3 -3 -3 -3 -2 -2 -2 -2 -2 -2 -2 -2 -2 -2 -2 -2 -1 -1 -1 -1 -2 -2 -2 -2 -2 -2 -2 -2 -2 -2 -2 -2 -2 -2 -2 -2 -2 -2 -2 -2 -2 -2 -2 -2 -2 -2 -2 -2 -2 -2 -2 -2 -2 -2 -2 -2
-5 -6 -6 -5 -5 -5 -5 -5 -5 -4 -4 -4 -4 -3 -3 -3 -3 -3 -2 -2 -2 -2 -2 -2 -2 -2 -2 -2 -2 -2 -2 -2 -2 -2 -2 -2 -2 -2 -2 -2 -2 -2 -2 -2 -2 -2 -2 -2 -2 -2 -2 -2 -2 -2 -2 -2 -2 -2 -2 -2 -2 -2 -2 -2 -2 -2 -2 -2 -2
-6 -6 -6 -6 -5 -5 -5 -5 -5 -5 -4 -4 -4 -3 -3 -3 -3 -3 -3 -3 -3 -3 -2 -2 -2 -2 -2 -2 -2 -2 -2 -2 -2 -2 -2 -2 -2 -2 -2 -3 -3 -3 -3 -3 -3 -3 -3 -3 -3 -3 -3 -3 -3 -3 -3 -3 -3 -3 -3 -3 -3 -3 -3 -3 -3 -3 -3 -3 -2
-6 -6 -6 -6 -6 -6 -5 -5 -5 -5 -4 -4 -4 -4 -3 -3 -3 -3 -3 -3 -3 -3 -2 -2 -2 -2 -2 -3 -3 -2 -2 -2 -3 -3 -3 -3 -3 -3 -3 -3 -3 -3 -3 -3 -4 -4 -4 -4 -4 -4 -3 -3 -3 -3 -3 -3 -3 -3 -3 -4 -4 -4 -3 -3 -3 -3 -3 -3 -3
-6 -6 -6 -6 -6 -6 -6 -6 -5 -5 -5 -5 -4 -4 -4 -4 -4 -3 -3 -3 -3 -3 -3 -3 -3 -3 -3 -3 -3 -3 -3 -3 -3 -3 -3 -3 -3 -3 -3 -3 -4 -4 -4 -4 -4 -4 -4 -4 -4 -4 -4 -4 -4 -4 -4 -4 -4 -4 -4 -4 -4 -4 -4 -4 -4 -4 -4 -4 -4
-6 -6 -6 -6 -6 -6 -6 -6 -6 -5 -5 -5 -4 -4 -4 -4 -4 -4 -4 -3 -3 -3 -3 -3 -3 -3 -3 -3 -3 -3 -3 -3 -3 -3 -3 -3 -3 -3 -3 -3 -4 -4 -4 -4 -4 -4 -5 -5 -5 -5 -5 -4 -4 -4 -4 -4 -4 -4 -4 -4 -4 -4 -4 -4 -4 -4 -4 -4 -4
-6 -6 -6 -6 -6 -6 -6 -6 -6 -5 -5 -5 -5 -4 -4 -4 -4 -4 -4 -4 -4 -3 -3 -3 -3 -3 -4 -3 -3 -4 -4 -4 -4 -4 -4 -4 -4 -4 -4 -4 -4 -4 -4 -5 -5 -5 -5 -5 -5 -5 -5 -5 -5 -4 -4 -4 -4 -4 -4 -4 -4 -4 -4 -4 -4 -4 -4 -4 -4
-6 -6 -6 -6 -6 -6 -6 -6 -6 -6 -5 -5 -5 -5 -4 -4 -4 -4 -4 -4 -4 -4 -4 -3 -4 -4 -4 -4 -4 -4 -4 -4 -4 -4 -4 -4 -4 -4 -4 -5 -5 -5 -5 -5 -5 -5 -5 -5 -5 -5 -5 -5 -5 -5 -5 -5 -5 -5 -5 -5 -4 -5 -5 -5 -5 -5 -5 -5 -5
-7 -7 -6 -6 -6 -6 -6 -6 -6 -6 -6 -5 -5 -5 -5 -5 -5 -5 -5 -4 -4 -4 -4 -4 -4 -4 -4 -4 -4 -4 -4 -5 -5 -5 -5 -5 -5 -5 -5 -5 -5 -5 -5 -5 -5 -5 -5 -5 -5 -5 -6 -6 -6 -5 -6 -6 -6 -6 -6 -5 -5 -5 -5 -5 -5 -5 -5 -5 -5
-7 -7 -7 -6 -7 -7 -6 -6 -6 -6 -6 -5 -5 -5 -5 -5 -5 -5 -5 -4 -4 -5 -5 -5 -5 -5 -5 -5 -5 -5 -5 -5 -6 -6 -6 -6 -6 -6 -6 -6 -6 -6 -6 -6 -6 -6 -6 -6 -6 -6 -6 -6 -6 -6 -6 -6 -6 -7 -7 -7 -7 -6 -6 -6 -6 -6 -6 -6 -6
-7 -7 -7 -7 -7 -7 -7 -6 -6 -6 -6 -6 -6 -5 -5 -5 -5 -5 -5 -5 -5 -5 -5 -5 -5 -5 -5 -5 -5 -6 -6 -6 -6 -7 -7 -7 -7 -7 -7 -7 -7 -7 -7 -7 -7 -6 -6 -6 -6 -7 -7 -7 -7 -6 -6 -7 -7 -7 -7 -7 -7 -7 -7 -7 -7 -7 -7 -7 -7
-7 -7 -7 -7 -7 -7 -7 -7 -7 -6 -6 -6 -6 -6 -6 -5 -5 -6 -6 -6 -5 -5 -5 -5 -5 -5 -5 -6 -6 -6 -6 -7 -7 -7 -7 -7 -7 -7 -7 -7 -7 -7 -7 -7 -7 -7 -6 -6 -7 -7 -7 -7 -7 -7 -7 -7 -7 -7 -7 -8 -8 -8 -8 -8 -8 -8 -7 -7 -7
-8 -8 -8 -7 -7 -7 -7 -7 -7 -7 -7 -7 -7 -6 -6 -6 -6 -6 -6 -6 -6 -6 -6 -6 -6 -6 -6 -6 -6 -6 -6 -6 -7 -7 -7 -7 -7 -7 -7 -7 -7 -7 -7 -7 -7 -7 -7 -7 -7 -7 -7 -7 -7 -7 -7 -7 -7 -7 -8 -8 -8 -8 -8 -9 -9 -8 -8 -8 -8
-8 -8 -8 -8 -8 -8 -8 -8 -7 -7 -7 -7 -7 -7 -7 -6 -6 -6 -6 -6 -6 -6 -6 -6 -6 -6 -6 -6 -6 -6 -6 -6 -7 -7 -7 -7 -7 -7 -7 -7 -7 -7 -7 -7 -7 -7 -7 -7 -7 -7 -7 -7 -8 -8 -8 -8 -8 -8 -8 -8 -8 -8 -9 -9 -9 -9 -9 -9 -9
-8 -8 -8 -8 -8 -8 -8 -8 -8 -8 -8 -7 -7 -7 -7 -7 -7 -6 -6 -6 -6 -6 -6 -6 -7 -7 -7 -7 -7 -6 -6 -7 -7 -7 -7 -7 -7 -7 -8 -8 -8 -7 -7 -7 -7 -7 -7 -7 -7 -7 -8 -8 -8 -8 -8 -8 -8 -8 -8 -8 -8 -9 -9 -9 -9 -9 -9 -9 -9
-9 -9 -9 -9 -9 -9 -9 -8 -8 -8 -8 -8 -8 -8 -8 -7 -7 -7 -7 -6 -6 -6 -6 -6 -6 -6 -7 -7 -7 -7 -7 -7 -7 -7 -7 -7 -7 -8 -8 -8 -8 -8 -7 -7 -7 -7 -7 -7 -7 -7 -8 -8 -8 -8 -8 -8 -8 -8 -8 -8 -9 -9 -9 -9 -9 -9 -9 -9 -9
-9 -9 -9 -9 -9 -9 -9 -9 -9 -9 -9 -8 -8 -8 -8 -8 -7 -7 -7 -7 -6 -6 -6 -6 -6 -6 -6 -7 -7 -7 -7 -7 -8 -8 -8 -8 -8 -8 -8 -8 -8 -8 -7 -7 -7 -8 -7 -7 -7 -7 -8 -8 -8 -8 -8 -8 -8 -8 -9 -9 -9 -9 -9 -9 -9 -9 -9 -9 -9
Height
1456 1456 1454 1453 1451 1449 1447 1446 1444 1443 1442 1441 1441 1441 1440 1440 1440 1439 1438 1437 1436 1435 1435 1436 1436 1437 1437 1437 1438 1439 1439 1439 1439 1440 1440 1440 1441 1441 1442 1442 1442 1443 1443 1443 1444 1444 1444 1444 1443 1443 1443 1443 1444 1444 1445 1445 1446 1446 1446 1446 1447 1447 1447 1448 1448 1449 1449 1450 1450
1455 1454 1452 1451 1449 1448 1446 1443 1441 1440 1439 1439 1439 1438 1438 1438 1438 1437 1436 1435 1433 1433 1433 1433 1434 1435 1435 1435 1436 1437 1438 1437 1438 1438 1438 1439 1439 1439 1440 1441 1441 1441 1442 1442 1442 1442 1442 1442 1442 1441 1442 1442 1443 1443 1444 1444 1445 1445 1445 1445 1446 1446 1446 1446 1447 1447 1448 1448 1449
1453 1451 1450 1449 1447 1446 1444 1441 1439 1438 1436 1436 1436 1436 1436 1435 1435 1435 1434 1433 1431 1431 1431 1432 1433 1433 1434 1435 1436 1437 1437 1436 1436 1437 1437 1437 1437 1438 1438 1439 1439 1440 1440 1441 1441 1441 1441 1441 1441 1440 1440 1441 1442 1442 1443 1443 1443 1443 1444 1444 1444 1445 1445 1445 1446 1446 1447 1447 1447
1451 1450 1448 1446 1445 1443 1442 1440 1437 1436 1434 1433 1433 1433 1434 1433 1433 1432 1432 1431 1430 1429 1429 1430 1431 1432 1433 1433 1435 1436 1436 1436 1436 1437 1437 1437 1437 1437 1437 1437 1438 1438 1439 1439 1439 1439 1439 1439 1439 1439 1440 1440 1441 1441 1441 1442 1442 1442 1442 1443 1443 1443 1443 1444 1444 1445 1445 1446 1446
1449 1447 1446 1444 1442 1441 1439 1438 1436 1434 1432 1431 1430 1431 1431 1432 1431 1430 1430 1429 1428 1427 1427 1427 1428 1429 1430 1431 1432 1434 1435 1435 1436 1436 1436 1436 1436 1436 1436 1436 1436 1436 1437 1437 1437 1437 1437 1438 1438 1438 1439 1439 1439 1439 1440 1441 1441 1441 1441 1442 1442 1442 1442 1442 1443 1443 1444 1444 1444
1447 1445 1443 1442 1440 1439 1437 1435 1433 1431 1430 1428 1428 1428 1428 1429 1430 1429 1428 1427 1426 1426 1425 1425 1426 1426 1427 1428 1430 1431 1432 1433 1434 1435 1436 1435 1435 1434 1434 1434 1434 1435 1435 1435 1435 1436 1436 1437 1437 1437 1438 1438 1438 1438 1439 1439 1440 1440 1440 1440 1441 1441 1441 1441 1441 1442 1442 1442 1442
1445 1443 1441 1440 1438 1436 1435 1433 1431 1429 1427 1426 1425 1425 1425 1426 1427 1427 1427 1426 1425 1424 1424 1423 1423 1423 1424 1425 1426 1428 1430 1431 1432 1433 1433 1433 1433 1432 1432 1433 1433 1433 1434 1434 1435 1436 1436 1436 1436 1436 1436 1436 1436 1436 1437 1437 1438 1438 1438 1439 1439 1439 1439 1439 1440 1440 1440 1441 1441
1444 1442 1440 1438 1436 1434 1432 1430 1428 1427 1425 1423 1423 1422 1422 1423 1424 1425 1425 1425 1423 1422 1422 1422 1422 1422 1422 1423 1424 1425 1427 1429 1430 1431 1431 1431 1431 1430 1431 1431 1432 1432 1433 1433 1434 1435 1435 1435 1435 1435 1435 1435 1435 1435 1435 1436 1436 1436 1436 1436 1436 1437 1437 1437 1438 1438 1438 1439 1439
1441 1439 1437 1436 1433 1431 1430 1428 1426 1424 1423 1421 1420 1420 1420 1420 1421 1421 1422 1423 1422 1421 1420 1420 1420 1421 1421 1421 1421 1423 1424 1426 1427 1428 1429 1429 1429 1429 1429 1430 1430 1431 1431 1432 1433 1434 1434 1434 1434 1434 1433 1433 1433 1433 1433 1433 1434 1434 1434 1434 1434 1435 1435 1436 1436 1436 1436 1437 1437
1439 1437 1435 1433 1431 1429 1427 1425 1423 1421 1420 1419 1417 1417 1417 1417 1418 1418 1419 1419 1420 1419 1418 1418 1418 1418 1418 1419 1419 1420 1421 1423 1425 1426 1427 1427 1427 1428 1428 1428 1429 1429 1430 1431 1432 1432 1432 1432 1432 1432 1431 1431 1431 1431 1431 1431 1431 1432 1432 1432 1432 1432 1433 1433 1434 1434 1435 1435 1435
1437 1435 1433 1431 1429 1427 1425 1422 1421 1419 1418 1416 1415 1415 1415 1415 1415 1415 1416 1416 1416 1416 1416 1416 1415 1414 1414 1415 1415 1416 1417 1419 1421 1422 1423 1425 1425 1426 1427 1427 1427 1428 1429 1430 1430 1431 1431 1430 1430 1430 1429 1429 1429 1429 1429 1430 1430 1430 1430 1430 1430 1431 1431 1431 1432 1432 1433 1433 1433
1435 1433 1431 1429 1427 1425 1423 1420 1418 1417 1415 1414 1413 1412 1411 1412 1412 1412 1413 1413 1413 1413 1413 1412 1411 1410 1410 1410 1411 1412 1414 1416 1418 1419 1421 1422 1423 1424 1425 1426 1426 1427 1428 1428 1428 1429 1429 1428 1428 1428 1427 1427 1427 1427 1428 1428 1428 1428 1428 1428 1428 1428 1429 1429 1430 1431 1431 1431 1431
1433 1431 1429 1427 1425 1423 1421 1418 1416 1415 1413 1412 1411 1410 1409 1409 1409 1410 1410 1410 1410 1410 1410 1408 1407 1407 1407 1407 1408 1410 1412 1414 1416 1417 1419 1420 1421 1422 1423 1424 1425 1425 1426 1426 1426 1426 1427 1426 1426 1426 1426 1426 1426 1426 1426 1426 1426 1426 1426 1426 1426 1426 1426 1427 1428 1428 1429 1429 1430
1431 1430 1427 1425 1423 1421 1419 1417 1415 1413 1412 1410 1409 1408 1407 1406 1406 1407 1407 1407 1407 1407 1407 1406 1405 1405 1405 1405 1406 1408 1410 1412 1414 1415 1416 1417 1418 1419 1420 1421 1422 1423 1424 1424 1425 1425 1425 1425 1425 1425 1424 1425 1425 1425 1424 1424 1424 1424 1424 1424 1424 1424 1425 1425 1426 1426 1426 1427 1427
1430 1428 1426 1424 1422 1420 1418 1416 1414 1412 1411 1410 1408 1407 1406 1405 1405 1405 1405 1405 1405 1405 1406 1405 1404 1404 1404 1405 1405 1407 1409 1411 1412 1413 1414 1415 1416 1417 1418 1419 1420 1421 1422 1422 1423 1423 1423 1423 1423 1423 1422 1422 1422 1422 1422 1422 1422 1422 1422 1422 1423 1423 1423 1423 1424 1424 1425 1425 1425
1428 1426 1425 1423 1421 1419 1417 1415 1413 1412 1410 1409 1407 1406 1405 1404 1404 1403 1403 1403 1402 1402 1403 1403 1402 1402 1403 1404 1405 1406 1407 1409 1410 1411 1412 1413 1414 1414 1415 1416 1418 1419 1420 1421 1421 1421 1421 1421 1421 1421 1420 1420 1420 1420 1420 1420 1420 1421 1421 1421 1421 1421 1421 1422 1423 1423 1424 1424 1424
1427 1426 1424 1422 1420 1419 1417 1415 1413 1411 1409 1408 1406 1405 1404 1403 1402 1401 1401 1401 1400 1400 1401 1401 1400 1400 1401 1401 1403 1404 1406 1407 1408 1409 1410 1410 1411 1412 1413 1414 1416 1417 1418 1418 1419 1419 1420 1419 1419 1418 1418 1418 1417 1417 1418 1418 1419 1419 1420 1420 1421 1421 1421 1421 1421 1422 1422 1422 1422
1426 1425 1423 1421 1420 1418 1416 1415 1413 1411 1409 1407 1405 1404 1403 1402 1401 1400 1399 1399 1399 1399 1399 1398 1398 1398 1399 1399 1400 1401 1402 1404 1405 1406 1407 1408 1409 1410 1411 1413 1414 1415 1416 1416 1417 1417 1418 1417 1417 1416 1416 1416 1416 1416 1416 1417 1418 1418 1419 1420 1420 1420 1420 1420 1421 1421 1421 1421 1421
1426 1424 1423 1421 1419 1418 1416 1414 1412 1411 1409 1407 1405 1403 1402 1401 1400 1399 1398 1398 1398 1398 1397 1397 1396 1396 1397 1397 1398 1398 1399 1400 1402 1404 1405 1406 1407 1408 1410 1411 1412 1413 1414 1414 1415 1416 1416 1415 1415 1414 1414 1414 1414 1414 1415 1416 1417 1418 1419 1419 1420 1420 1420 1419 1420 1420 1420 1420 1420
1426 1424 1423 1421 1419 1418 1416 1414 1412 1410 1408 1406 1405 1403 1401 1400 1399 1398 1397 1397 1397 1396 1396 1396 1395 1395 1396 1396 1396 1397 1397 1398 1400 1402 1404 1405 1406 1407 1408 1409 1410 1411 1412 1412 1413 1414 1413 1413 1413 1412 1412 1412 1412 1413 1414 1416 1416 1417 1418 1418 1419 1419 1418 1418 1418 1418 1419 1419 1419
1426 1425 1423 1421 1420 1418 1416 1414 1412 1410 1408 1406 1405 1403 1401 1400 1399 1398 1397 1396 1396 1396 1396 1395 1395 1396 1396 1396 1397 1397 1398 1399 1400 1402 1403 1404 1405 1406 1407 1408 1408 1409 1410 1411 1412 1412 1412 1412 1411 1411 1411 1411 1412 1413 1414 1415 1416 1417 1417 1417 1417 1417 1417 1417 1417 1417 1417 1418 1418
1426 1425 1423 1422 1420 1418 1416 1414 1412 1410 1408 1406 1405 1403 1401 1400 1399 1398 1397 1396 1396 1396 1396 1396 1396 1396 1397 1398 1399 1399 1400 1400 1401 1401 1402 1403 1404 1405 1406 1406 1407 1408 1409 1410 1410 1411 1411 1410 1410 1409 1410 1411 1412 1413 1414 1415 1416 1416 1416 1416 1416 1416 1416 1416 1416 1416 1416 1416 1417
1427 1425 1424 1422 1421 1419 1417 1415 1413 1411 1408 1406 1405 1403 1402 1401 1399 1398 1397 1397 1396 1396 1396 1397 1397 1398 1398 1399 1400 1401 1401 1401 1401 1401 1401 1402 1403 1404 1405 1405 1406 1407 1408 1409 1409 1409 1409 1409 1408 1409 1410 1411 1412 1413 1413 1414 1415 1415 1415 1415 1415 1415 1415 1415 1415 1416 1416 1416 1416
1427 1426 1424 1423 1421 1419 1417 1415 1413 1411 1409 1407 1406 1404 1402 1401 1400 1399 1398 1398 1397 1397 1397 1398 1398 1399 1400 1400 1401 1401 1401 1401 1401 1401 1401 1402 1402 1403 1404 1405 1406 1406 1407 1407 1408 1408 1408 1408 1408 1409 1410 1411 1411 1412 1413 1413 1414 1414 1414 1414 1414 1414 1415 1415 1415 1415 1415 1415 1415
1428 1426 1425 1423 1421 1419 1417 1416 1414 1412 1410 1408 1406 1405 1403 1402 1401 1400 1399 1399 1398 1398 1399 1399 1399 1399 1400 1400 1400 1400 1401 1401 1401 1402 1402 1402 1403 1403 1404 1405 1406 1406 1406 1407 1407 1407 1407 1408 1408 1409 1410 1410 1411 1411 1412 1412 1413 1413 1413 1413 1413 1414 1414 1414 1414 1414 1415 1415 1415
1429 1427 1425 1424 1422 1420 1418 1416 1414 1413 1411 1409 1407 1406 1404 1403 1402 1401 1400 1400 1400 1400 1400 1399 1399 1399 1399 1399 1400 1400 1400 1401 1401 1402 1402 1403 1403 1404 1404 1405 1405 1406 1406 1406 1407 1407 1407 1408 1408 1409 1409 1410 1411 1411 1411 1411 1412 1412 1412 1412 1413 1413 1413 1413 1413 1414 1414 1414 1415
1429 1427 1426 1424 1422 1421 1419 1417 1416 1414 1412 1410 1409 1407 1406 1404 1403 1402 1401 1401 1401 1401 1400 1400 1400 1400 1400 1400 1401 1401 1401 1401 1402 1402 1403 1403 1404 1404 1405 1406 1406 1406 1407 1407 1408 1408 1408 1408 1409 1409 1409 1410 1410 1410 1411 1411 1411 1411 1411 1412 1412 1412 1412 1412 1413 1413 1413 1413 1414
1430 1428 1426 1425 1423 1421 1420 1418 1416 1415 1413 1411 1410 1408 1407 1406 1405 1404 1403 1403 1402 1402 1402 1402 1402 1402 1401 1401 1402 1402 1403 1403 1403 1403 1404 1404 1404 1405 1406 1406 1407 1407 1408 1408 1409 1409 1409 1409 1409 1409 1409 1409 1410 1410 1410 1410 1410 1410 1411 1411 1411 1411 1412 1412 1412 1412 1413 1413 1413
1430 1429 1427 1426 1424 1422 1421 1419 1418 1416 1414 1413 1411 1410 1409 1408 1407 1406 1405 1405 1404 1404 1403 1403 1403 1403 1403 1403 1403 1404 1404 1404 1404 1405 1405 1405 1405 1406 1406 1406 1407 1408 1408 1409 1409 1409 1409 1409 1409 1409 1409 1409 1409 1409 1409 1409 1410 1410 1410 1410 1410 1411 1411 1411 1412 1412 1412 1413 1413
1431 1430 1428 1426 1425 1423 1422 1421 1419 1417 1416 1414 1413 1412 1411 1410 1408 1407 1407 1406 1406 1406 1405 1405 1405 1404 1404 1405 1404 1404 1404 1405 1405 1405 1405 1405 1406 1406 1406 1406 1407 1408 1409 1410 1410 1410 1410 1410 1410 1410 1410 1409 1409 1409 1409 1409 1409 1409 1409 1410 1410 1410 1410 1411 1411 1412 1412 1412 1413
1432 1431 1429 1427 1426 1424 1423 1421 1420 1419 1417 1416 1415 1413 1412 1411 1410 1409 1408 1408 1408 1408 1407 1406 1406 1406 1406 1406 1406 1406 1406 1405 1405 1405 1405 1405 1405 1406 1406 1406 1407 1408 1409 1410 1410 1410 1410 1410 1410 1410 1410 1410 1410 1410 1409 1409 1409 1409 1409 1409 1409 1410 1410 1410 1410 1411 1411 1412 1412
1433 1431 1430 1428 1427 1425 1424 1423 1421 1420 1418 1417 1416 1415 1414 1413 1413 1411 1410 1410 1410 1410 1409 1408 1408 1407 1407 1407 1407 1407 1407 1406 1406 1406 1406 1406 1406 1406 1407 1407 1408 1409 1409 1410 1410 1410 1410 1410 1410 1410 1410 1410 1410 1410 1410 1409 1409 1409 1409 1409 1409 1409 1409 1409 1409 1410 1410 1411 1411
1433 1432 1431 1429 1428 1426 1425 1424 1422 1421 1420 1419 1418 1417 1416 1415 1414 1413 1412 1411 1411 1411 1411 1410 1409 1409 1408 1408 1408 1408 1408 1407 1407 1407 1407 1407 1408 1408 1408 1408 1408 1409 1410 1410 1410 1410 1410 1410 1410 1410 1410 1410 1410 1409 1409 1409 1409 1408 1408 1408 1408 1408 1408 1408 1408 1408 1409 1410 1410
1434 1433 1431 1430 1429 1427 1426 1425 1423 1422 1421 1420 1419 1418 1417 1416 1416 1415 1413 1412 1412 1412 1412 1411 1411 1410 1410 1410 1409 1409 1409 1408 1408 1408 1408 1408 1408 1408 1408 1409 1409 1409 1410 1410 1410 1410 1410 1410 1410 1410 1410 1410 1409 1409 1409 1409 1409 1408 1408 1407 1407 1407 1407 1407 1407 1407 1408 1408 1409
1434 1433 1432 1431 1430 1428 1426 1426 1424 1423 1422 1421 1420 1419 1418 1417 1417 1416 1415 1414 1413 1413 1413 1412 1412 1411 1411 1410 1410 1410 1409 1409 1409 1409 1409 1408 1408 1408 1409 1409 1409 1410 1410 1410 1410 1410 1410 1410 1410 1410 1409 1409 1409 1409 1409 1409 1409 1408 1408 1407 1406 1406 1406 1406 1406 1407 1407 1407 1408
1435 1434 1433 1431 1430 1429 1427 1426 1425 1424 1423 1422 1421 1420 1419 1418 1418 1417 1416 1415 1414 1414 1414 1413 1413 1412 1412 1411 1411 1411 1411 1410 1410 1410 1410 1409 1409 1409 1409 1409 1409 1410 1410 1410 1411 1411 1411 1410 1410 1410 1409 1409 1409 1409 1408 1408 1408 1408 1407 1407 1407 1406 1406 1406 1406 1406 1406 1406 1407
1436 1435 1433 1432 1431 1429 1428 1427 1426 1425 1424 1422 1422 1421 1420 1420 1419 1418 1417 1416 1416 1415 1415 1414 1414 1413 1413 1412 1412 1412 1412 1411 1411 1411 1411 1410 1410 1410 1409 1409 1410 1410 1410 1410 1411 1411 1411 1411 1411 1410 1409 1409 1408 1408 1408 1407 1407 1407 1407 1407 1407 1406 1406 1406 1406 1406 1406 1406 1406
1436 1435 1434 1433 1431 1430 1429 1427 1426 1426 1425 1423 1422 1421 1421 1420 1420 1419 1418 1418 1417 1416 1416 1415 1414 1414 1413 1413 1413 1412 1412 1412 1411 1411 1411 1411 1411 1411 1411 1410 1410 1410 1410 1410 1411 1411 1411 1411 1411 1410 1409 1408 1408 1407 1407 1407 1406 1406 1406 1406 1406 1407 1406 1406 1406 1406 1406 1406 1407
1436 1435 1434 1433 1432 1431 1429 1428 1427 1426 1426 1425 1423 1422 1421 1421 1420 1419 1419 1418 1418 1417 1417 1416 1415 1415 1414 1413 1413 1413 1412 1412 1412 1412 1411 1411 1411 1411 1411 1411 1411 1411 1411 1411 1410 1410 1410 1410 1410 1409 1408 1408 1407 1407 1406 1406 1406 1406 1406 1406 1406 1406 1407 1407 1406 1406 1406 1407 1408
1437 1436 1435 1433 1432 1431 1430 1428 1427 1427 1426 1425 1424 1423 1422 1421 1420 1420 1419 1419 1418 1418 1417 1417 1416 1416 1415 1414 1413 1413 1412 1412 1412 1412 1411 1411 1412 1412 1412 1411 1411 1411 1411 1411 1410 1410 1410 1410 1409 1408 1408 1407 1406 1406 1406 1406 1406 1406 1406 1406 1406 1406 1406 1407 1407 1407 1407 1407 1407
1437 1436 1435 1433 1432 1431 1430 1429 1428 1427 1426 1426 1425 1424 1422 1422 1421 1420 1420 1419 1419 1418 1417 1417 1417 1416 1415 1414 1413 1413 1413 1412 1412 1412 1411 1411 1412 1412 1412 1412 1411 1411 1411 1410 1410 1410 1410 1410 1409 1408 1407 1406 1406 1406 1406 1406 1406 1405 1405 1405 1406 1406 1406 1406 1407 1407 1407 1406 1406
Wind_Speed
44 42 40 38 38 38 39 38 35 31 28 27 28 29 29 29 29 28 25 22 18 16 15 14 15 16 17 16 17 18 20 21 20 20 20 20 20 21 20 19 18 18 17 17 17 16 16 16 16 16 16 15 14 13 12 12 12 12 13 13 13 12 12 12 13 13 14 15 15
45 43 41 39 39 39 39 39 38 34 29 27 28 29 30 31 32 31 28 25 22 19 17 15 14 14 14 13 13 13 14 16 19 20 20 20 20 20 19 18 18 17 17 16 16 16 16 16 16 16 17 17 16 15 14 14 14 14 14 14 14 14 14 14 14 14 14 15 15
46 45 43 42 40 40 39 39 39 36 32 28 26 27 30 32 33 33 31 29 26 24 22 19 17 15 13 13 13 12 12 14 15 17 18 18 18 17 17 17 16 16 16 16 16 15 15 15 15 16 17 17 16 16 16 15 15 15 15 15 15 15 16 16 16 15 16 16 16
47 46 45 43 42 40 39 38 39 38 35 29 26 25 27 30 32 32 32 31 29 29 28 26 24 21 18 15 14 15 16 16 16 17 17 16 15 15 15 15 14 14 14 14 14 14 14 14 15 15 16 16 16 16 16 16 15 15 15 15 15 16 16 17 17 17 17 16 17
48 47 46 44 43 41 40 38 38 38 36 32 27 25 25 26 28 30 30 30 30 30 31 30 29 27 23 19 16 14 14 15 16 17 18 16 15 13 13 13 13 13 13 13 14 14 14 15 16 16 17 17 17 17 17 17 17 16 15 15 15 15 16 17 17 17 17 17 17
48 48 46 44 43 42 41 39 38 37 36 34 30 26 25 24 25 26 28 29 29 29 29 28 27 26 24 21 17 15 15 16 17 18 18 18 16 15 15 16 16 17 17 17 17 17 18 18 18 18 19 19 19 19 19 19 19 19 18 16 15 15 16 17 18 18 18 18 18
48 48 46 44 43 42 41 40 38 37 36 35 31 29 27 26 25 25 25 26 27 28 27 26 25 24 22 20 18 19 20 19 18 16 15 16 17 18 20 21 20 20 20 20 19 19 20 20 20 20 20 20 20 20 20 20 20 20 20 18 17 17 16 17 18 18 19 19 19
48 47 45 43 43 42 41 40 39 37 35 34 32 30 28 27 26 25 25 24 25 26 26 25 25 25 24 23 24 24 23 20 16 14 13 14 15 18 20 21 22 22 22 21 21 20 20 20 20 20 20 20 20 20 20 20 20 20 20 19 18 18 17 17 17 18 18 19 19
48 46 45 43 42 41 41 40 39 37 34 33 31 29 28 27 27 27 27 26 25 24 24 25 26 27 27 28 29 27 25 21 18 15 14 14 14 15 16 17 18 20 21 22 21 21 20 20 20 20 19 19 19 18 19 19 19 19 19 19 19 19 18 17 16 16 16 17 18
47 45 44 43 41 40 40 40 39 37 34 31 29 28 27 27 27 28 29 29 28 26 25 25 26 27 28 29 29 28 25 23 20 18 16 15 15 16 16 16 17 18 20 20 21 21 21 20 19 18 18 17 16 16 17 18 18 18 19 19 19 20 19 18 17 16 16 16 16
46 44 43 41 40 39 39 38 38 36 33 30 28 26 25 25 26 27 28 29 29 28 26 25 26 27 27 28 29 29 27 25 23 21 20 18 18 18 18 18 18 18 19 20 20 20 20 19 18 17 16 15 15 14 15 15 16 16 17 18 19 20 20 20 20 19 18 17 16
44 42 41 39 39 38 37 37 36 34 32 29 27 25 24 23 24 25 27 28 28 26 25 25 26 28 29 30 31 31 30 28 27 25 23 21 19 18 17 17 18 19 19 19 18 18 18 17 16 15 14 13 13 12 12 12 12 13 14 15 16 17 18 19 20 21 20 19 18
41 40 38 37 37 36 36 35 35 34 32 30 27 25 24 23 22 23 25 27 27 25 24 25 27 29 30 31 32 31 30 29 28 27 25 23 21 19 19 19 20 19 18 16 16 15 15 15 14 13 12 11 11 11 11 11 11 11 12 12 13 14 15 16 18 19 20 20 20
38 37 36 35 35 35 35 34 34 33 32 30 28 26 25 24 23 23 24 26 26 26 26 27 29 30 31 32 31 30 28 26 26 26 26 25 23 22 21 21 21 18 15 13 13 13 13 12 12 11 11 11 12 12 12 11 11 12 12 12 12 12 13 14 14 15 16 17 19
35 34 34 34 34 34 34 33 32 30 29 29 28 28 27 26 25 26 26 27 27 28 29 31 33 34 34 33 32 30 27 24 24 24 25 25 23 23 23 22 20 16 12 10 10 11 11 11 11 12 12 13 13 13 13 12 12 13 13 13 12 13 13 13 13 12 13 14 16
33 32 32 32 32 33 33 32 30 28 26 25 25 26 25 24 24 25 27 28 29 30 32 34 36 37 37 36 35 33 30 26 24 23 23 22 22 23 23 21 18 14 11 8 8 9 10 11 12 13 14 14 14 14 13 13 13 13 13 12 12 13 13 13 12 11 11 12 14
31 31 31 31 31 31 31 30 28 26 24 22 22 22 21 19 18 19 23 27 30 32 34 36 38 38 39 39 38 37 34 31 27 23 21 21 22 23 22 19 17 14 11 9 9 9 10 11 13 13 13 13 12 11 11 11 12 12 12 11 11 11 11 11 11 11 12 13 14
30 30 30 30 30 30 29 29 27 26 24 21 20 18 17 15 13 13 15 19 24 27 30 32 34 35 35 36 37 36 35 34 30 26 23 22 23 22 19 17 16 14 13 11 11 11 11 12 13 12 11 10 9 9 9 9 9 9 9 9 9 9 9 9 9 10 12 13 14
29 29 29 29 29 29 28 28 26 25 24 22 20 18 15 13 11 9 9 12 15 19 22 25 26 27 27 28 30 32 34 35 32 27 23 23 22 20 18 16 15 14 13 13 14 13 12 11 11 10 9 8 7 8 8 8 7 7 8 8 8 8 7 7 8 9 11 13 14
28 28 28 28 28 28 27 27 26 24 23 22 20 18 16 14 12 11 10 10 11 13 16 18 19 19 19 20 22 24 28 30 28 25 22 21 20 19 17 16 15 14 15 15 15 13 10 9 8 8 7 7 7 8 8 8 9 9 10 9 9 8 8 7 7 7 9 12 13
27 27 27 27 26 26 26 26 25 24 22 21 20 18 16 14 13 12 11 11 10 10 11 12 13 13 13 14 16 17 19 21 21 21 21 20 19 18 17 15 15 15 14 12 10 8 7 7 6 6 6 7 8 8 9 10 10 10 10 9 9 9 8 7 6 6 7 8 10
26 26 25 25 25 25 25 25 24 23 21 20 18 17 15 13 11 10 10 10 9 8 8 8 9 10 10 11 12 13 15 17 19 20 20 19 18 17 15 14 13 11 9 7 7 7 7 7 6 6 7 8 9 9 10 9 8 7 7 7 7 7 7 6 6 6 6 7 8
25 24 23 23 24 24 24 24 23 22 20 19 17 16 14 11 9 7 6 5 5 5 5 6 7 8 9 10 12 13 15 16 17 18 18 18 16 15 14 12 10 9 7 7 7 7 7 7 7 7 8 8 9 9 8 7 6 4 4 3 3 3 3 4 4 5 6 7 7
23 22 22 23 23 24 23 23 22 21 20 19 17 16 14 11 7 4 2 1 2 3 4 4 6 7 8 10 11 13 14 15 15 15 15 15 14 13 11 10 9 8 7 6 6 6 7 8 8 8 8 7 7 7 7 7 6 4 3 2 1 1 1 1 1 3 4 5 5
22 21 22 23 24 23 23 22 22 21 20 19 17 16 13 10 7 4 2 2 3 3 4 5 7 9 10 12 13 14 14 14 13 13 14 14 13 12 11 10 9 8 7 6 6 6 7 7 7 6 6 6 6 7 7 7 6 4 3 2 1 1 2 2 3 3 3 3 4
21 21 22 23 23 23 23 23 22 20 19 18 17 16 14 11 8 6 5 5 5 5 6 8 11 13 14 15 15 15 14 13 12 12 13 14 13 12 11 10 9 9 9 8 7 6 6 6 5 5 4 4 5 6 6 5 4 3 2 1 2 2 3 3 4 4 4 4 4
20 21 22 23 23 23 23 23 22 20 19 18 18 17 16 14 11 9 8 7 7 8 9 11 13 13 13 13 12 11 11 11 11 12 13 13 13 12 12 11 11 11 10 9 8 7 6 5 4 3 2 2 3 3 3 2 2 3 3 3 3 3 3 4 4 4 4 5 5
20 21 22 23 23 23 23 23 22 21 19 18 18 19 18 17 14 12 10 9 9 10 10 11 12 11 10 8 7 5 6 8 11 12 13 13 13 13 14 14 14 14 12 10 9 8 8 7 5 3 2 1 1 2 2 3 4 5 5 5 5 5 4 4 4 4 5 5 6
20 21 21 22 23 23 23 23 22 21 20 18 18 19 19 18 15 13 12 10 10 11 11 11 11 10 9 7 5 5 7 9 12 13 14 14 14 14 14 14 14 13 11 10 9 9 8 8 6 5 4 4 5 6 6 7 7 8 8 8 8 7 6 6 5 5 5 6 7
21 21 21 22 22 23 22 22 21 21 20 18 17 18 19 18 16 14 13 11 9 9 10 10 10 11 10 8 9 12 15 15 15 15 15 14 14 13 12 11 11 11 10 10 9 8 7 7 6 6 6 6 7 8 8 9 9 9 10 10 10 10 9 9 8 8 8 9 9
22 21 21 21 22 22 21 20 20 20 19 17 16 17 17 17 15 14 13 12 10 7 7 8 9 9 9 8 12 16 19 20 20 20 19 18 17 15 14 13 12 11 10 9 8 7 6 5 5 5 6 7 7 8 9 9 9 10 10 11 11 11 11 11 11 11 11 11 12
22 21 20 21 22 22 21 19 19 19 19 17 15 15 16 16 15 14 13 12 11 8 6 7 8 8 7 7 9 12 15 16 17 17 17 17 16 15 14 13 11 10 9 8 7 5 5 5 5 6 7 7 8 9 9 9 9 10 10 11 12 13 13 13 13 13 13 13 13
21 19 19 20 21 21 20 18 17 18 18 17 15 14 14 15 15 13 13 12 11 10 8 7 8 9 8 7 7 7 8 9 10 10 10 10 10 9 9 9 10 10 10 9 8 7 7 7 7 7 7 7 7 7 7 7 7 8 8 9 10 12 13 13 14 13 13 12 11
20 18 18 19 20 20 20 19 17 16 17 17 15 14 14 15 15 14 12 11 11 10 9 8 8 8 8 8 7 8 8 9 10 11 11 10 10 9 9 10 11 12 12 12 10 9 9 9 9 9 8 7 7 6 5 4 4 4 5 6 7 9 10 11 12 12 12 10 8
19 17 17 18 18 19 20 19 17 16 15 16 15 14 14 14 15 14 11 9 8 8 7 7 7 8 9 9 9 10 11 11 12 12 12 11 11 11 11 12 13 13 13 13 12 11 10 11 10 9 8 8 6 5 3 3 2 2 2 2 4 6 7 9 10 10 10 8 5
18 17 17 17 17 18 19 20 18 16 14 15 15 15 14 14 14 13 11 8 7 6 6 6 6 7 8 9 9 10 10 10 10 10 10 10 10 11 13 14 14 15 15 14 12 11 10 10 9 9 9 8 6 4 2 3 3 3 2 1 2 4 5 7 8 8 8 7 3
19 18 17 17 17 18 19 19 19 17 15 14 14 14 13 13 13 12 11 9 8 8 8 8 8 8 8 8 8 8 8 8 8 8 8 9 10 12 14 15 16 17 17 15 12 10 8 8 8 8 8 7 4 2 3 4 4 4 3 3 3 3 4 5 6 7 8 8 6
19 18 18 18 18 18 18 19 19 18 16 14 13 13 13 12 11 11 11 10 10 9 9 9 9 9 9 8 8 8 9 9 10 10 11 12 12 13 14 16 17 17 17 15 11 8 6 7 7 7 6 4 2 2 2 3 3 3 3 4 4 4 4 4 5 6 8 9 8
19 19 19 19 19 19 19 19 19 18 17 15 14 13 13 12 11 10 10 9 9 8 8 8 8 7 7 7 7 8 9 10 11 12 13 14 14 14 14 15 16 16 15 13 9 7 6 7 6 4 3 2 0 1 2 2 3 3 3 3 4 4 4 4 4 5 6 7 7
19 19 19 19 19 19 19 19 18 18 17 16 15 14 14 13 12 11 9 8 7 7 6 6 5 5 4 4 6 7 8 9 11 13 14 15 15 14 14 14 15 15 13 10 7 6 7 7 3 1 1 1 0 1 3 4 5 3 2 3 4 5 5 5 5 5 5 4 4
19 20 21 20 20 20 19 19 18 16 15 15 15 14 14 13 13 12 11 8 6 5 4 4 4 4 3 3 4 6 8 9 11 12 14 14 15 14 14 14 15 14 11 7 5 7 8 7 2 1 2 1 2 4 6 7 6 3 1 4 5 5 5 5 5 4 4 4 4
Wind_Direction
330 331 331 330 329 326 323 320 316 310 302 297 293 289 282 274 267 262 257 252 247 242 238 238 244 249 248 240 235 234 235 237 240 245 250 254 255 255 254 253 251 251 250 251 251 252 252 252 252 252 253 255 256 256 255 254 252 251 252 253 254 254 253 252 251 249 248 247 246
329 330 330 329 328 326 323 320 316 311 304 297 294 292 288 280 272 265 258 251 245 240 235 230 232 238 242 239 233 228 227 232 239 246 251 254 254 254 253 252 251 251 251 252 253 254 254 254 254 255 255 254 253 251 250 249 249 249 250 250 251 252 252 251 251 250 250 250 249
328 329 329 328 327 325 323 319 315 311 306 298 294 293 292 287 279 270 262 254 248 244 241 235 230 230 235 244 250 253 256 256 255 256 256 255 254 252 251 250 250 252 254 257 258 259 258 257 258 258 258 256 253 250 248 247 248 249 250 250 250 250 249 249 249 249 249 249 250
327 328 328 327 326 325 322 318 314 310 306 299 293 292 293 291 286 277 267 258 252 249 248 245 239 233 231 236 249 262 271 275 277 276 272 266 261 256 254 253 254 256 258 261 264 265 265 263 262 262 262 262 260 256 253 250 250 251 252 253 251 249 248 247 246 246 247 247 248
326 327 327 326 325 324 321 317 312 308 304 299 291 287 289 291 289 283 273 262 255 252 251 249 244 238 233 233 241 254 266 274 277 278 277 273 268 263 262 261 262 264 267 269 272 274 274 272 269 268 268 268 267 264 259 255 253 253 252 251 250 248 247 246 245 245 246 246 247
326 326 326 325 324 322 320 316 311 307 303 298 289 283 283 287 288 284 277 268 262 257 253 249 243 236 231 230 236 248 259 265 268 268 267 266 265 265 266 267 268 268 269 270 272 273 273 272 271 270 269 269 267 265 262 259 257 255 252 248 245 244 244 245 245 246 247 247 247
325 325 324 323 322 321 319 316 311 306 302 298 290 282 278 282 283 281 277 272 266 261 255 247 239 232 227 226 232 243 253 257 257 255 253 254 257 260 262 263 263 263 263 264 265 265 266 267 269 268 267 266 265 264 262 260 258 256 253 248 243 240 241 243 245 246 247 248 248
324 323 322 321 320 319 318 315 311 306 301 297 291 282 275 275 277 276 273 270 266 260 253 246 240 233 229 229 235 242 247 250 249 247 248 250 254 257 258 257 256 256 256 257 258 259 261 263 266 266 265 264 262 261 260 258 256 254 252 249 244 239 237 238 242 245 247 249 249
322 321 320 319 319 318 317 315 311 306 301 296 291 284 276 271 272 272 270 268 264 258 251 246 242 238 236 237 240 242 244 246 248 251 255 260 262 263 261 257 254 252 252 252 253 255 257 259 262 262 262 261 260 259 257 256 254 252 251 248 244 240 236 234 236 240 244 246 248
320 319 319 319 318 318 316 314 312 308 302 296 291 286 280 274 271 270 268 265 262 258 254 249 245 242 241 241 241 240 239 240 242 247 254 262 268 271 271 267 260 254 251 250 250 251 252 254 257 258 259 259 259 258 257 256 254 252 250 247 245 241 238 234 232 233 236 239 241
319 318 318 319 318 318 317 315 314 311 306 298 291 287 283 278 274 271 268 264 260 257 255 251 245 241 239 239 237 236 234 233 235 239 245 252 258 264 267 266 261 255 251 248 247 248 249 251 254 256 258 260 261 261 259 257 254 252 249 247 245 243 240 237 235 233 232 231 232
318 318 318 319 319 319 319 319 318 316 311 304 294 287 282 278 274 270 266 261 256 252 249 246 241 236 233 232 232 231 230 230 231 234 237 240 245 251 255 256 253 249 247 245 244 246 248 252 255 258 261 263 264 263 260 256 252 248 246 245 244 243 242 240 238 235 232 231 230
318 319 320 321 321 322 323 323 323 321 317 310 301 292 284 279 273 268 263 257 250 244 241 239 235 231 228 226 227 228 228 229 230 231 232 234 237 242 245 245 243 241 240 239 241 244 249 254 258 260 262 263 262 259 255 250 246 242 240 240 241 242 242 242 241 239 237 235 234
321 322 323 324 324 325 326 327 326 324 320 315 309 301 292 285 278 272 267 260 252 245 240 238 235 231 227 224 223 224 226 228 227 227 227 230 233 236 237 236 234 231 230 232 236 241 246 251 255 258 259 257 254 252 249 247 245 243 241 240 239 240 241 241 242 241 240 238 237
325 326 326 327 327 328 329 328 326 324 321 316 311 304 297 289 282 276 272 267 261 254 248 243 240 237 232 227 224 223 224 225 224 223 225 228 229 229 228 226 224 221 220 223 229 234 238 242 248 253 255 254 252 251 250 250 249 248 245 243 242 242 241 240 240 239 238 237 236
330 330 330 330 330 331 330 328 325 323 320 316 309 302 296 288 278 272 267 265 263 258 252 246 243 241 239 235 231 227 225 224 223 221 221 221 220 220 220 219 217 217 217 221 227 230 234 240 248 252 254 255 254 254 255 256 257 255 253 249 247 246 244 242 240 238 237 235 233
335 334 334 334 334 333 332 328 324 321 318 315 309 301 294 287 276 264 257 254 253 250 245 241 240 240 240 238 234 230 226 224 223 219 215 212 213 214 215 214 215 217 220 226 233 237 241 247 250 251 252 253 255 257 260 263 265 264 261 258 255 252 249 245 241 239 238 237 234
339 339 338 338 337 336 333 330 326 321 318 315 310 303 295 287 277 262 247 240 238 235 232 230 230 231 232 231 230 227 224 223 222 218 213 208 208 209 209 210 213 215 220 227 237 241 243 247 247 246 244 245 249 256 262 266 267 264 260 257 256 256 255 251 245 241 240 240 238
344 343 342 341 339 338 336 333 330 325 321 317 312 306 297 288 279 265 247 233 226 223 221 221 222 223 224 224 225 224 224 223 221 217 210 204 203 203 205 208 214 219 227 237 246 248 246 242 240 238 236 238 244 252 257 257 249 239 234 236 243 251 258 260 255 246 242 242 242
348 347 345 344 341 339 338 336 334 331 327 323 318 312 304 294 284 274 262 248 236 228 225 224 224 225 225 224 224 224 223 221 217 210 202 197 197 199 204 212 222 231 241 250 252 250 243 235 231 229 230 233 239 240 237 231 222 218 220 228 241 255 266 269 262 249 241 239 241
351 349 348 345 343 341 340 339 338 336 334 330 326 320 312 302 292 282 272 262 250 239 232 229 228 226 225 224 220 215 211 208 201 196 193 192 194 200 207 218 230 240 247 248 241 230 220 217 216 215 216 219 220 219 216 215 217 223 233 247 261 271 275 271 260 247 238 234 236
353 351 349 347 344 343 342 342 342 341 340 337 334 329 322 312 301 288 276 264 252 239 228 224 221 218 213 205 197 189 185 184 184 185 188 191 197 203 210 218 226 230 228 217 202 196 197 197 195 192 192 195 199 202 206 212 221 236 252 267 275 278 276 267 257 248 241 237 234
354 353 351 349 347 346 346 346 346 346 346 344 341 337 331 324 313 299 282 262 239 221 208 202 198 194 187 180 175 172 171 171 174 178 183 188 194 200 205 207 206 198 186 178 178 183 186 185 185 184 186 188 190 194 199 204 212 225 241 258 269 274 269 262 255 250 246 241 235
356 355 354 352 351 351 352 352 352 352 352 350 347 344 340 335 328 321 305 233 181 169 164 163 165 165 165 165 166 165 163 162 161 163 167 172 178 183 184 182 175 166 159 157 163 171 178 180 182 185 188 190 191 192 192 191 189 185 178 161 132 92 45 330 291 271 259 248 237
359 358 357 356 356 357 357 358 358 357 357 357 354 353 352 352 353 3 39 83 104 114 125 137 144 145 145 146 148 151 152 150 148 147 149 152 156 160 160 157 150 141 134 131 139 153 166 173 177 180 187 194 199 201 199 195 189 182 172 154 101 44 22 7 352 334 310 282 253
2 2 360 358 359 1 2 2 1 1 2 3 5 9 14 18 25 36 55 73 86 104 125 138 142 140 136 134 135 137 138 138 138 139 141 142 144 145 144 138 130 120 113 110 117 130 142 151 159 168 183 201 212 217 220 223 225 230 240 289 330 344 351 352 348 341 332 315 296
5 4 1 358 360 2 3 3 3 3 4 8 16 24 31 36 43 52 67 82 96 113 129 138 138 133 126 121 120 122 124 125 127 130 134 136 135 132 126 117 108 100 95 91 96 101 104 109 119 134 162 192 215 229 243 263 286 307 326 342 351 354 356 356 353 347 338 328 316
5 4 0 358 360 1 2 3 4 4 7 12 22 31 37 40 46 57 72 89 105 114 120 122 121 114 104 96 98 111 124 124 122 123 125 127 123 116 107 99 92 85 81 81 83 83 81 81 83 86 84 67 28 1 352 352 351 352 354 359 3 6 6 2 354 344 336 329 321
2 2 0 359 360 0 1 4 6 7 9 13 23 32 36 38 42 52 65 82 100 108 107 103 97 90 83 83 105 144 153 140 128 124 122 119 115 109 102 96 89 82 76 75 76 77 76 73 68 59 44 26 14 7 1 358 356 354 353 352 353 353 353 349 342 332 323 318 315
359 0 2 2 1 0 2 6 10 11 11 15 23 31 34 34 34 41 51 63 82 100 105 99 86 77 76 90 123 136 136 133 132 131 129 126 121 117 113 109 102 91 80 73 73 73 72 67 57 43 27 14 6 0 356 352 349 346 344 342 339 337 334 330 324 318 311 307 306
358 2 5 6 3 1 2 7 13 15 16 19 25 31 33 32 29 30 36 45 56 77 100 101 89 79 78 96 120 123 120 118 119 120 121 122 123 123 123 120 112 100 84 72 68 65 59 50 35 17 3 353 349 347 345 342 338 335 332 328 327 324 322 319 315 310 306 303 301
0 5 10 11 6 2 1 6 13 18 21 24 28 31 33 34 31 27 27 31 36 47 70 92 97 95 97 110 124 122 114 109 107 107 108 109 111 112 112 108 99 84 68 54 44 35 24 11 360 352 346 341 340 339 340 339 335 329 323 318 315 314 313 312 310 308 306 304 301
4 10 15 15 9 3 0 4 12 19 25 29 30 30 32 37 37 32 25 24 26 31 43 63 81 90 96 104 113 111 102 94 89 87 86 87 88 89 87 80 68 54 42 31 21 11 1 354 352 350 349 347 348 350 352 352 346 338 328 320 314 310 309 308 308 308 310 309 306
7 12 16 16 11 4 360 2 8 17 25 30 32 32 35 42 45 41 30 22 20 20 23 30 45 58 67 71 73 72 70 69 67 65 62 60 58 57 56 53 46 38 28 20 13 6 359 355 354 355 354 354 358 5 15 22 17 2 345 332 322 316 313 310 311 314 317 320 315
8 10 11 13 10 3 359 360 5 13 22 29 31 33 38 47 52 50 39 25 20 19 20 17 21 30 39 45 51 58 64 66 66 64 60 51 41 35 32 31 29 25 19 13 8 0 353 350 350 349 348 349 356 10 41 79 83 67 27 352 338 332 326 322 322 325 331 336 331
7 6 5 4 2 359 356 357 1 7 15 23 27 30 36 46 55 57 51 37 31 33 36 31 25 25 28 31 37 46 54 61 63 62 57 45 29 17 10 7 6 4 4 3 2 358 351 344 341 339 338 340 351 17 74 115 129 132 123 81 26 3 349 340 339 343 351 1 11
5 3 0 357 355 353 353 354 358 1 6 11 17 21 27 37 49 57 58 50 45 43 43 40 35 30 24 20 21 24 26 29 30 29 23 14 7 1 357 354 352 351 352 352 354 355 351 342 335 330 331 338 357 50 109 134 148 153 146 124 85 51 22 3 354 360 12 29 45
2 0 358 356 353 351 351 352 355 357 359 359 2 7 14 22 34 45 52 52 48 44 41 39 38 34 26 16 10 5 1 358 357 356 354 351 349 349 350 349 347 347 347 347 349 351 350 339 326 322 327 341 15 108 144 161 176 179 167 144 116 90 64 37 16 19 33 48 56
357 357 356 355 354 352 350 351 353 355 356 353 350 352 357 6 14 24 35 43 45 43 42 42 44 41 32 19 8 1 356 352 350 350 350 349 347 346 346 347 347 346 346 346 348 353 353 341 320 311 322 349 88 176 212 241 250 235 205 168 136 112 94 78 57 52 59 69 73
351 351 352 353 353 351 350 350 352 354 356 354 349 345 346 352 359 6 14 25 34 39 43 48 54 55 46 26 10 3 358 354 352 351 350 349 347 346 345 347 347 348 348 350 1 12 9 354 322 262 165 136 186 279 294 303 300 283 230 171 138 118 106 100 95 92 97 112 125
345 346 348 350 351 350 349 348 349 353 357 358 352 345 342 345 352 358 2 6 13 22 32 44 56 64 59 34 12 3 360 357 354 352 350 348 346 345 345 347 349 351 354 3 32 41 30 16 20 132 133 92 354 336 332 332 330 324 163 137 122 111 106 108 113 121 142 176 197